Weather History for Massena, NY

Change the Weather History Date:

Tuesday, June 17, 2014

  Actual Average Record
Temperature  
Mean Temperature 68 °F 65 °F  
Max Temperature 83 °F 76 °F 95 °F (1994)
Min Temperature 53 °F 54 °F 40 °F (1968)
Cooling Degree Days 3 3  
Month to date cooling degree days 33 29  
Year to date cooling degree days 48 43  
Since 1 June cooling degree days 33 29  
Growing Degree Days 18 (Base 50)    
Moisture  
Dew Point 59 °F    
Average Humidity 73    
Maximum Humidity 100    
Minimum Humidity 45    
Precipitation  
Precipitation 0.95 in 0.11 in 1.58 in (1989)
Month to date precipitation 4.28 1.99  
Year to date precipitation 14.21 13.92  
Sea Level Pressure  
Sea Level Pressure 29.92 in    
Wind  
Wind Speed 6 mph (SE)    
Max Wind Speed 20 mph    
Max Gust Speed 24 mph    
Visibility 5 miles    
Events Fog , Rain , Thunderstorm    
T = Trace of Precipitation, MM = Missing Value Source: NWS Daily Summary

Daily Weather History Graph

Daily Weather History Graph

Search for Another Location

Airport:

Trip Planner

Search our weather history database for the weather conditions in past years. The results will help you decide how hot, cold, wet, or windy it might be!

Date:

Astronomy

Jun. 17, 2014 Rise Set
Actual Time 5:12 AM EDT 8:48 PM EDT
Civil Twilight 4:35 AM EDT 9:25 PM EDT
Nautical Twilight 3:45 AM EDT 10:15 PM EDT
Astronomical Twilight 2:39 AM EDT 11:20 PM EDT
Moon No Moon Rise 10:35 AM EDT (6/17)
Length of Visible Light 16h 50m
Length of Day
15h 36m
Waning Gibbous, 73% of the Moon is Illuminated
Jun 17
Waning Gibbous
Jun 19
Last Quarter
Jun 27
New
Jul 5
First Quarter
Jul 12
Full

Hourly Weather History & Observations

Time (EDT) Temp. Heat Index Dew Point Humidity Pressure Visibility Wind Dir Wind Speed Gust Speed Precip Events Conditions
12:00 AM 57.9 °F - 57.9 °F 100% 30.00 in 3.0 mi Calm Calm - N/A   Partly Cloudy
12:53 AM 57.9 °F - 57.9 °F 100% 29.99 in 1.8 mi Calm Calm - N/A   Scattered Clouds
12:56 AM 57.0 °F - 57.0 °F 100% 29.99 in 1.0 mi Calm Calm - N/A   Mist
1:02 AM 57.0 °F - 57.0 °F 100% 29.99 in 1.8 mi Calm Calm - N/A   Scattered Clouds
1:04 AM 57.0 °F - 57.0 °F 100% 29.99 in 3.0 mi Calm Calm - N/A   Partly Cloudy
1:15 AM 55.9 °F - 55.9 °F 100% 30.00 in 1.2 mi Calm Calm - N/A   Scattered Clouds
1:25 AM 57.0 °F - 57.0 °F 100% 30.00 in 2.0 mi Calm Calm - N/A   Scattered Clouds
1:32 AM 55.9 °F - 55.9 °F 100% 30.00 in 4.0 mi Calm Calm - N/A   Partly Cloudy
1:38 AM 55.9 °F - 55.9 °F 100% 30.00 in 1.2 mi Calm Calm - N/A   Partly Cloudy
1:45 AM 55.0 °F - 55.0 °F 100% 30.00 in 1.0 mi Calm Calm - N/A   Mist
1:47 AM 55.4 °F - 55.4 °F 100% 30.00 in 1.8 mi Calm Calm - N/A   Clear
1:53 AM 57.0 °F - 55.9 °F 96% 30.00 in 8.0 mi Calm Calm - N/A   Clear
2:11 AM 57.9 °F - 57.9 °F 100% 30.00 in 1.2 mi Calm Calm - N/A   Partly Cloudy
2:13 AM 57.9 °F - 57.9 °F 100% 30.00 in 0.8 mi Calm Calm - N/A   Mist
2:25 AM 57.0 °F - 57.0 °F 100% 30.00 in 0.8 mi Calm Calm - N/A   Partly Cloudy
2:34 AM 55.9 °F - 55.9 °F 100% 30.00 in 1.5 mi South 3.5 mph - N/A   Partly Cloudy
2:38 AM 55.9 °F - 55.9 °F 100% 30.00 in 4.0 mi SSW 3.5 mph - N/A   Partly Cloudy
2:42 AM 55.9 °F - 55.9 °F 100% 30.00 in 1.2 mi Calm Calm - N/A   Partly Cloudy
2:44 AM 55.0 °F - 55.0 °F 100% 30.00 in 0.8 mi Calm Calm - N/A   Mist
2:53 AM 55.9 °F - 55.9 °F 100% 30.01 in 0.2 mi Calm Calm - N/A Fog Fog
3:12 AM 55.0 °F - 55.0 °F 100% 30.00 in 1.5 mi SSW 3.5 mph - N/A   Partly Cloudy
3:16 AM 57.0 °F - 57.0 °F 100% 30.00 in 3.0 mi Calm Calm - N/A   Partly Cloudy
3:42 AM 55.0 °F - 54.0 °F 96% 30.00 in 1.5 mi Calm Calm - N/A   Clear
3:53 AM 57.0 °F - 55.9 °F 96% 29.99 in 5.0 mi Calm Calm - N/A   Clear
4:53 AM 55.0 °F - 55.0 °F 100% 30.00 in 9.0 mi Calm Calm - N/A   Clear
5:02 AM 54.0 °F - 54.0 °F 100% 30.00 in 1.2 mi Calm Calm - N/A   Clear
5:09 AM 54.0 °F - 54.0 °F 100% 30.01 in 0.5 mi Calm Calm - N/A Fog Fog
5:14 AM 54.0 °F - 54.0 °F 100% 30.01 in 2.0 mi Calm Calm - N/A   Clear
5:29 AM 54.0 °F - 54.0 °F 100% 30.02 in 1.2 mi Calm Calm - N/A   Clear
5:38 AM 54.0 °F - 53.1 °F 97% 30.02 in 0.8 mi Calm Calm - N/A   Clear
5:42 AM 54.0 °F - 54.0 °F 100% 30.02 in 1.8 mi Calm Calm - N/A   Clear
5:53 AM 54.0 °F - 54.0 °F 100% 30.02 in 2.0 mi Calm Calm - N/A   Clear
6:02 AM 55.0 °F - 55.0 °F 100% 30.02 in 7.0 mi Calm Calm - N/A   Clear
6:53 AM 60.1 °F - 60.1 °F 100% 30.04 in 10.0 mi Calm Calm - N/A   Clear
7:53 AM 66.0 °F - 63.0 °F 90% 30.05 in 10.0 mi SSW 6.9 mph - N/A   Partly Cloudy
8:53 AM 71.1 °F - 64.0 °F 78% 30.04 in 10.0 mi SSW 9.2 mph - N/A   Clear
9:53 AM 75.0 °F - 66.0 °F 73% 30.02 in 10.0 mi WSW 11.5 mph - N/A   Clear
10:53 AM 77.0 °F - 66.0 °F 69% 30.00 in 10.0 mi WSW 8.1 mph - N/A   Clear
11:53 AM 80.1 °F 81.2 °F 62.1 °F 54% 29.99 in 10.0 mi SW 9.2 mph - N/A   Clear
12:53 PM 81.0 °F 81.1 °F 57.9 °F 45% 29.98 in 10.0 mi WSW 5.8 mph - N/A   Clear
1:53 PM 81.0 °F 81.3 °F 59.0 °F 47% 29.96 in 10.0 mi West 8.1 mph - N/A   Clear
2:53 PM 81.0 °F 81.9 °F 62.1 °F 52% 29.95 in 10.0 mi SW 5.8 mph - N/A   Clear
3:53 PM 78.1 °F - 63.0 °F 60% 29.90 in 10.0 mi South 4.6 mph - N/A   Mostly Cloudy
4:53 PM 77.0 °F - 64.0 °F 64% 29.87 in 10.0 mi ESE 3.5 mph - 0.00 in   Mostly Cloudy
5:53 PM 78.1 °F - 64.9 °F 64% 29.83 in 10.0 mi SE 3.5 mph - N/A   Scattered Clouds
6:53 PM 75.9 °F - 64.9 °F 69% 29.81 in 10.0 mi ENE 4.6 mph - N/A   Mostly Cloudy
7:53 PM 73.0 °F - 64.9 °F 76% 29.76 in 10.0 mi ENE 11.5 mph - 0.00 in Rain Light Rain
8:49 PM 68.0 °F - 64.4 °F 88% 29.71 in 3.0 mi NNE 15.0 mph - 0.11 in Rain Heavy Rain
8:53 PM 68.0 °F - 64.0 °F 87% 29.71 in 3.0 mi NE 15.0 mph - 0.14 in Rain Heavy Rain
9:11 PM 66.9 °F - 64.0 °F 90% 29.73 in 2.5 mi East 12.7 mph - 0.15 in Rain , Thunderstorm Heavy Rain
9:25 PM 66.9 °F - 64.0 °F 90% 29.72 in 4.0 mi ENE 10.4 mph - 0.24 in Rain , Thunderstorm Rain
9:38 PM 66.0 °F - 64.0 °F 93% 29.71 in 2.5 mi NE 10.4 mph - 0.37 in Rain Heavy Rain
9:53 PM 64.9 °F - 64.0 °F 97% 29.69 in 4.0 mi ENE 11.5 mph - 0.48 in Rain Rain
10:10 PM 64.9 °F - 64.0 °F 97% 29.68 in 3.0 mi East 9.2 mph 20.7 mph 0.13 in Rain , Thunderstorm Heavy Rain
10:12 PM 64.9 °F - 64.0 °F 97% 29.67 in 2.5 mi East 10.4 mph - 0.17 in Rain , Thunderstorm Heavy Thunderstorms and Rain
10:29 PM 64.9 °F - 64.0 °F 97% 29.66 in 5.0 mi ESE 6.9 mph - 0.30 in Rain , Thunderstorm Rain
10:37 PM 64.9 °F - 64.0 °F 97% 29.66 in 8.0 mi ENE 5.8 mph - 0.31 in Rain Light Rain
10:53 PM 64.9 °F - 64.0 °F 97% 29.63 in 10.0 mi East 9.2 mph - 0.32 in   Overcast
11:51 PM 66.2 °F - 64.4 °F 94% 29.64 in 9.0 mi SW 4.6 mph - 0.00 in Rain Light Rain
11:53 PM 66.0 °F - 64.9 °F 96% 29.63 in 9.0 mi SW 5.8 mph - 0.00 in Rain Light Rain